Regional Weather Roundup
Issued by NWS

Home | Current Version | Previous Version | Text Only | Print | Product List | Glossary Off
Versions: 1 2 3 4 5 6 7 8 9 10 11 12 13 14 15 16 17 18 19 20 21 22 23 24 25 26 27 28 29 30 31 32 33 34 35 36 37 38 39 40 41 42 43 44 45 46 47 48 49 50

000
ASUS43 KMPX 010510
RWRMN
WEATHER ROUNDUP FOR MINNESOTA
NATIONAL WEATHER SERVICE TWIN CITIES/CHANHASSEN MN
1200 AM CDT WED APR 01 2015


NOTE: "FAIR" INDICATES FEW OR NO CLOUDS BELOW 12,000 FEET WITH NO
SIGNIFICANT WEATHER AND/OR OBSTRUCTIONS TO VISIBILITY. N/A MEANS
CURRENT SKY AND/OR WEATHER CONDITIONS ARE NOT AVAILABLE.

MNZ060>063-068>070-010600-
   Twin Cities Metro

CITY           SKY/WX    TMP DP  RH WIND       PRES   REMARKS
TWIN CITIES    PTCLDY    50  29  44 SE8       29.86F
ST PAUL        PTCLDY    45  31  58 SE5       29.88F
CRYSTAL        PTCLDY    50  28  42 E6        29.85F
BLAINE         PTCLDY    52  25  35 E6        29.86F
LAKEVILLE      PTCLDY    43  34  70 S3        29.87F
EDEN PRAIRIE   CLEAR     53  29  39 SE7       29.85F
SOUTH ST PAUL  PTCLDY    49  28  44 SE3       29.87S
LAKE ELMO      FAIR      50  28  43 SE3       29.88F
$$
MNZ001>005-007-008-013>017-022>024-027-028-010600-
   Northwest Minnesota

CITY           SKY/WX    TMP DP  RH WIND       PRES   REMARKS
BEMIDJI        PTCLDY    40  26  59 E7        29.80F
HALLOCK        PTCLDY    43  32  65 E9        29.75S
ROSEAU         PTCLDY    43  34  70 SE10      29.79F
WARROAD        PTCLDY    36  32  87 E8        29.81F
THIEF RVR FALL MOCLDY    45  30  57 E13       29.77F
CROOKSTON      MOCLDY    46  30  53 SE13      29.75F
FOSSTON        PTCLDY    41  32  70 SE9       29.77F
DETROIT LAKES  CLEAR     46  28  49 SE7       29.77F
MOORHEAD       PTCLDY    48  30  49 SE7       29.74S
PARK RAPIDS    CLEAR     47  27  45 SE8       29.80F
MAHNOMEN       FAIR      46  28  50 SE12      29.75F
$$
MNZ006-009>011-018-025>026-010600-
   North Central Minnesota

CITY           SKY/WX    TMP DP  RH WIND       PRES   REMARKS
BAUDETTE       PTCLDY    36  30  79 E9        29.83F
FLAG ISLAND    PTCLDY    39  30  70 E7        29.82F
INTL FALLS     CLOUDY    34  28  79 E8        29.87F WCI  27
WASKISH        PTCLDY    37  27  65 CALM      29.82F
BIG FORK       MOCLDY    36  27  69 CALM      29.85F
LONGVILLE      MOCLDY    30  27  86 CALM      29.83F
GRAND RAPIDS   MOCLDY    43  25  49 SE9       29.86F
ORR            CLEAR     36  27  69 CALM      29.86F
COOK           PTCLDY    30  27  86 CALM      29.89S
WALKER         FAIR      36  28  72 E3        29.81F
$$
MNZ012-019>021-037-010600-
   Northeast Minnesota

CITY           SKY/WX    TMP DP  RH WIND       PRES   REMARKS
DULUTH         MOCLDY    32  29  88 E13       29.92S WCI  22
ELY            CLEAR     30  27  86 SE10      29.91S WCI  21
HIBBING        PTCLDY    34  27  75 SE5       29.89R WCI  30
EVELETH        PTCLDY    32  28  86 E3        29.91S
DULUTH HARBOR  PTCLDY    34  32  93 NE18      29.96S WCI  23
TWO HARBORS    CLOUDY    34  28  80 E9G16     29.94F WCI  26
SILVER BAY     CLOUDY    32  30  93 NE7       29.95F WCI  26
GRAND MARAIS     N/A     31  27  85 NE3       29.99F
G MARAIS ARPRT CLOUDY    27  25  93 CALM      29.94S
$$
MNZ029>031-032-039>041-046>048-054>057-064-010600-
   West Central Minnesota

CITY           SKY/WX    TMP DP  RH WIND       PRES   REMARKS
FERGUS FALLS   CLEAR     52  21  30 SE12      29.77F
WHEATON        CLEAR     45  32  61 SE13      29.75F
MORRIS         PTCLDY    46  34  61 SE13      29.76F
ALEXANDRIA     CLEAR     49  28  44 SE12      29.80F
ELBOW LAKE     FAIR      49  30  47 SE13      29.75F
WADENA         CLEAR     43  27  52 E8        29.79F
GLENWOOD       CLEAR     43  32  65 SE9       29.80F
APPLETON       CLEAR     52  30  43 SE13      29.76F
BENSON         PTCLDY    52  30  43 S12       29.78F
ORTONVILLE     CLEAR     48  32  53 SE13      29.75F
MADISON        CLEAR     50  34  53 SE13      29.76F
WILLMAR        FAIR      48  32  53 E12       29.82F
$$
MNZ033>034-036-042>043-049>051-058-059-010600-
   Central Minnesota

CITY           SKY/WX    TMP DP  RH WIND       PRES   REMARKS
ST CLOUD       CLEAR     48  27  44 SE7       29.84F
SAUK CENTRE    FAIR      47  29  51 E5        29.81F
PAYNESVILLE    CLEAR     47  29  49 E7        29.82F
AITKIN         PTCLDY    43  27  52 E3        29.83F
PINE RIVER     PTCLDY    43  28  56 SE6       29.86F
BRAINERD       CLEAR     46  26  45 SE7       29.83F
STAPLES        CLEAR     45  27  49 E5        29.81S
LONG PRAIRIE   FAIR      46  30  53 SE8       29.82S
LITTLE FALLS   CLEAR     48  28  46 E8        29.82F
LITCHFIELD     CLEAR     46  30  53 CALM      29.84S
BUFFALO        CLEAR     45  30  57 CALM      29.86F
MAPLE LAKE     CLEAR     41  33  72 SE5       29.85F
$$
MNZ037-044-045-052-053-010600-
   East Central Minnesota

CITY           SKY/WX    TMP DP  RH WIND       PRES   REMARKS
PRINCETON      PTCLDY    48  27  43 E5        29.85F
MORA           PTCLDY    37  27  65 E3        29.88F
CAMBRIDGE      PTCLDY    48  30  49 CALM      29.84F
RUSH CITY      PTCLDY    44  26  48 E3        29.87F
MOOSE LAKE     CLEAR     37  30  75 CALM      29.88S
HINCKLEY       FAIR      41  28  60 E6        29.88F
CLOQUET        CLEAR     34  30  86 E13       29.91S WCI  25
MCGREGOR       PTCLDY    41  28  60 E7        29.87S
$$
MNZ071>073-080-081-089-090-097-098-010600-
   Southwest Minnesota

CITY           SKY/WX    TMP DP  RH WIND       PRES   REMARKS
MONTEVIDEO     CLEAR     50  34  53 S14       29.79F
GRANITE FALLS  CLEAR     52  34  49 E15       29.81F
CANBY          CLEAR     47  32  54 SE9       29.77F
MARSHALL       CLEAR     48  30  49 SE12      29.79F
REDWOOD FALLS  PTCLDY    51  34  52 SE10      29.81F
OLIVIA         PTCLDY    48  34  57 SE13      29.81F
PIPESTONE      PTCLDY    55  28  35 S12       29.78F
WINDOM         PTCLDY    52  30  43 CALM      29.82F
WORTHINGTON    PTCLDY    55  28  35 S13       29.82F
JACKSON        MOCLDY    54  30  40 S8        29.84S
TRACY          CLEAR     49  32  51 S8        29.80F
SLAYTON        CLEAR     48  27  45 CALM      29.81F
$$
MNZ065>067-074>077-082>085-091>093-010600-
   South Central Minnesota

CITY           SKY/WX    TMP DP  RH WIND       PRES   REMARKS
MANKATO        PTCLDY    48  34  57 SE12      29.86F
NEW ULM        PTCLDY    52  32  46 SE9       29.84S
ST JAMES       MOCLDY    48  32  53 E10       29.85S
FAIRMONT       MOCLDY    48  27  43 SE9       29.84S
GLENCOE        CLEAR     47  37  70 E6        29.84S
FARIBAULT      CLEAR     46  34  61 SE5       29.88S
OWATONNA       CLEAR     48  36  61 SE10      29.88F
WASECA         CLEAR     43  34  70 SE9       29.89F
ALBERT LEA     CLEAR     48  36  61 SE7       29.89S
$$
MNZ078>079-086>088-094>096-010600-
   Southeast Minnesota

CITY           SKY/WX    TMP DP  RH WIND       PRES   REMARKS
ROCHESTER      CLEAR     43  34  70 S8        29.91F
RED WING       MOCLDY    43  30  61 CALM      29.88F
STANTON        PTCLDY    44  34  69 CALM      29.86F
DODGE CENTER   PTCLDY    43  37  81 SE6       29.89F
WINONA         PTCLDY    41  34  75 CALM      29.92S
AUSTIN         CLEAR     43  36  75 SE3       29.89F
PRESTON        PTCLDY    45  32  61 S6        29.91F
$$
ABBREVIATIONS USED IN REMARKS
   TC - TEMPERATURES IN CELSIUS
  WCI - WIND CHILL INDEX
   HX - HEAT INDEX
  VSB - VISIBILITY
$$


USA.gov is the U.S. government's official web portal to all federal, state and local government web resources and services.